User: anonymous   Login
Location: NJAA Observatory
(40.6819°N, 74.8979°W)
Time: 22:14:56
(UTC-04:00)
Language:

Cosmos 220 Rocket - Orbit

View from above orbital plane
View from above orbital plane
View from above satellite
View from above satellite

Ground track
Ground track

The orbit data is extracted from the following two-line orbital elements,

1  3230U 68040B   17234.63317964 +.00000285 +00000-0 +33252-4 0  9996
2  3230 074.0356 110.2125 0029561 042.7838 317.5637 14.90178494624171
Epoch (UTC): 22 August 2017 15:11:46
Eccentricity: 0.0029561
inclination: 74.0356°
perigee height: 577 km
apogee height: 618 km
right ascension of ascending node: 110.2125°
argument of perigee: 42.7838°
revolutions per day: 14.90178494
mean anomaly at epoch: 317.5637°
orbit number at epoch: 62417

The dashed part of the orbit path shows where the satellite is in the earth's shadow,  

DLR